User: anonymous   Login
Location: Unspecified
(43.4680°N, 87.1740°E)
Time: 12:40:28
(UTC+00:00)
Language:

SL-16 R/B - Orbit

View from above orbital plane
View from above orbital plane
View from above satellite
View from above satellite

Ground track
Ground track

The orbit data is extracted from the following two-line orbital elements,

1 27006U 01056F   21170.91168608 -.00000033  00000-0  12448-4 0  9997
2 27006  99.5243 303.9879 0015476 108.6539   0.4695 13.70964247976978
Epoch (UTC): 19 June 2021 21:52:49
Eccentricity: 0.0015476
inclination: 99.5243°
perigee height: 985 km
apogee height: 1007 km
right ascension of ascending node: 303.9879°
argument of perigee: 108.6539°
revolutions per day: 13.70964247
mean anomaly at epoch: 0.4695°
orbit number at epoch: 97697

The dashed part of the orbit path shows where the satellite is in the earth's shadow,  

DLR